Regional Weather Roundup
Issued by NWS

Home | Current Version | Previous Version | Text Only | Print | Product List | Glossary On
Versions: 1 2 3 4 5 6 7 8 9 10 11 12 13 14 15 16 17 18 19 20 21 22 23 24 25 26 27 28 29 30 31 32 33 34 35 36 37 38 39 40 41 42 43 44 45 46 47 48 49 50
000
ASUS43 KDMX 081006
RWRIA

WEATHER ROUNDUP FOR IOWA
NATIONAL WEATHER SERVICE DES MOINES IA
400 AM CST THU DEC 08 2016

NOTE: "FAIR" INDICATES FEW OR NO CLOUDS BELOW 12,000 FEET WITH NO
SIGNIFICANT WEATHER AND/OR OBSTRUCTIONS TO VISIBILITY.

* - THESE STATIONS ARE NOT NWS STATIONS...THUS NOT UNDER NWS
QUALITY CONTROL.  THEY ALSO DO NOT REPORT WEATHER SUCH
AS PRECIPITATION OR FOG.

IAZ001>003-012>014-020>022-031>034-043>046-081100-
   NORTHWEST IOWA

CITY           SKY/WX    TMP DP  RH WIND       PRES   REMARKS
CARROLL *      PTCLDY    10   5  79 NW22G30   30.40R WCI  -9
CHEROKEE *     CLOUDY    10   4  75 NW14G25   30.42R WCI  -6
DENISON *      PTCLDY    10   3  72 NW20G25   30.41S WCI  -8
LE MARS *      MOCLDY     9   1  72 NW18G25   30.47S WCI -10
ORANGE CITY *  CLOUDY     9   3  78 NW21G29   30.40R WCI -11
SHELDON *      CLOUDY     9   5  85 NW21G29   30.37R WCI -11
SIOUX CITY     CLEAR     12   2  64 NW18G31   30.47R WCI  -6
SPENCER        CLOUDY    11   4  73 W31G44    30.35R WCI -11
STORM LAKE *   FLURRIES   9   3  78 W28G33    30.36F WCI -13
$$

IAZ055>058-069>071-079>083-090>094-081100-
   SOUTHWEST IOWA

CITY           SKY/WX    TMP DP  RH WIND       PRES   REMARKS
ATLANTIC *     CLOUDY    14   7  73 NW20G26   30.44S WCI  -3
AUDUBON *      CLEAR     10   5  79 NW15G22   30.41S WCI  -6
CLARINDA *     CLEAR     14   7  73 NW14      30.50S WCI  -1
COUNCIL BLFS * MOCLDY    12   5  73 NW20G30   30.48R WCI  -6
CRESTON *      MOCLDY    12   5  73 NW17G24   30.41F WCI  -5
HARLAN  *      PTCLDY    12   7  79 NW28      30.47S WCI  -9
LAMONI         CLEAR     14   6  70 NW16      30.41S WCI  -2
RED OAK *      CLOUDY    14   7  73 NW14G21   30.48S WCI  -1
SHENANDOAH *   CLEAR     14   7  73 NW15G25   30.51S WCI  -1
$$

IAZ047>049-059>061-072>074-084-081100-
   CENTRAL IOWA

CITY           SKY/WX    TMP DP  RH WIND       PRES   REMARKS
AMES           CLEAR     12   5  73 NW18      30.37R WCI  -6
ANKENY *       CLOUDY    14   5  67 NW18G29   30.40S WCI  -3
BOONE *        PTCLDY    10   3  72 NW24G31   30.35S WCI -10
CHARITON *     CLOUDY    14   9  79 NW17G24   30.38S WCI  -3
DES MOINES     PTCLDY    14   5  67 NW18      30.40R WCI  -3
GRINNELL*      MOCLDY    14   7  74 NW18G33   30.34R WCI  -3
KNOXVILLE *    CLEAR     14   5  67 NW25G31   30.36R WCI  -5
MARSHALLTOWN   PTCLDY    11   6  81 W18G26    30.33S WCI  -7
NEWTON *       CLOUDY    12   7  79 W26G35    30.35S WCI  -8
PELLA *        PTCLDY    16   9  74 NW15G23   30.38R WCI   1
PERRY *          N/A     12   7  78 W17G25    30.40S WCI  -5
$$

IAZ004>006-015-016-023>025-035-036-081100-
   NORTH CENTRAL IOWA

CITY           SKY/WX    TMP DP  RH WIND       PRES   REMARKS
ALGONA *       CLOUDY    12   7  79 NW18G26   30.30S WCI  -5
CLARION *      CLEAR     10   5  79 W21       30.32R WCI  -9
ESTHERVILLE    CLOUDY    10   5  80 NW25G32   30.31R WCI -11
FORT DODGE *   CLEAR     10   1  67 W10G21    30.36R WCI  -3
MASON CITY     MOCLDY    10   4  76 W20       30.27S WCI  -9
FOREST CITY *    N/A     10   7  85 W17G23    30.26F WCI  -7
WEBSTER CITY * CLEAR     10   5  79 W22       30.33S WCI  -9
IOWA FALLS *     N/A     12   6  78 W22       30.32S WCI  -7
$$

IAZ007>011-017>019-026>030-037>042-050>054-066-081100-
   NORTHEAST IOWA

CITY           SKY/WX    TMP DP  RH WIND       PRES   REMARKS
CEDAR RAPIDS   PTCLDY    13   8  81 W22G28    30.28S WCI  -6
CHARLES CITY * CLOUDY    12   5  73 W18G28    30.24F WCI  -5
CLINTON *      CLEAR     16  11  80 W20       30.25S WCI  -1
DECORAH *      FLURRIES  12   7  79 VRB7G20   30.19S WCI   2
DUBUQUE        CLOUDY    13   6  74 W22G31    30.21F WCI  -6
MONTICELLO *   CLOUDY    14   7  73 W22       30.26R WCI  -4
OELWEIN *      PTCLDY    10   7  85 W22G28    30.24S WCI  -9
WATERLOO       CLEAR     12   5  73 W16G23    30.28S WCI  -5
$$

IAZ064-065-067-068-078-081100-
   EAST CENTRAL IOWA

CITY           SKY/WX    TMP DP  RH WIND       PRES   REMARKS
DAVENPORT      PTCLDY    16   8  71 W23G32    30.28R WCI  -2
IOWA CITY      CLOUDY    17   8  67 W16G23    30.33S WCI   2
MUSCATINE *    CLOUDY    19  10  68 W17G26    30.33S WCI   4
QUAD CITIES    CLOUDY    20   9  62 W17G24    30.28S WCI   5
$$

IAZ062-063-075>077-085>089-095>099-081100-
   SOUTHEAST IOWA

CITY           SKY/WX    TMP DP  RH WIND       PRES   REMARKS
BURLINGTON     CLOUDY    18  10  71 W15G24    30.34R WCI   4
FAIRFIELD *    PTCLDY    16   9  73 W12       30.35S WCI   3
FORT MADISON * CLOUDY    18  10  73 W20G25    30.35S WCI   1
KEOKUK *       MOCLDY    18  10  73 W14       30.36S WCI   4
OSKALOOSA *      N/A     16   9  75 NW20G29   30.36S WCI  -1
CENTERVILLE *    N/A     14   9  79 W16G24    30.39S WCI  -2
OTTUMWA        MOCLDY    17   7  64 W16G25    30.36R WCI   2
WASHINGTON *   CLOUDY    18  10  73 W20G29    30.34S WCI   1
$$

ABBREVIATIONS USED IN REMARKS
   TC - TEMPERATURES IN CELSIUS
  WCI - WIND CHILL INDEX
   HX - HEAT INDEX
  VSB - VISIBILITY
$$





USA.gov is the U.S. government's official web portal to all federal, state and local government web resources and services.